Location: Pastrengo
(45.4833°N, 10.8000°E)
Time: 06:24:41
(UTC+00:00)

Daily predictions for brighter satellites

Satellite Brightness Start Highest point End
(mag) Time Altitude Azimuth Time Altitude Azimuth Time Altitude Azimuth
GEOS 3 Rocket 3.7 18:12:58 10° SE 18:18:06 79° NE 18:23:22 10° NW
Cosmos 292 Rocket 4.4 18:13:26 10° NNW 18:18:11 62° WSW 18:22:57 10° S
Aureole 3 4.2 18:13:26 10° S 18:18:19 81° E 18:24:36 10° N
COSMOS 2455 3.9 18:15:05 10° NNW 18:20:24 31° NE 18:25:41 10° ESE
YAOGAN 1 3.9 18:16:44 10° S 18:20:53 45° W 18:25:03 10° NNW
ISS -1.0 18:21:15 10° W 18:23:04 14° SW 18:24:53 10° SSW
NOSS 3-4 (A) 4.0 18:22:36 10° NW 18:29:29 62° NE 18:37:05 10° SE
NOSS 3-4 (C) 4.0 18:22:43 10° NW 18:29:36 62° NE 18:37:11 10° SE
STARLINK-1201 4.5 18:27:28 10° NW 18:30:22 28° NNE 18:33:16 10° ENE
SL-08 RB Rocket 4.4 18:26:32 10° SE 18:30:41 36° ENE 18:34:55 10° N
Cosmos 1818 3.6 18:26:32 10° SSW 18:31:58 88° SE 18:37:27 10° NE
STARLINK-1228 3.9 18:31:12 10° NW 18:33:44 31° NNE 18:36:16 10° E
Cosmos 1437 2.5 18:31:09 10° N 18:34:11 85° E 18:37:12 10° SSE
FALCON 9 DEB 4.0 18:33:41 10° SSW 18:36:50 32° SE 18:39:59 10° ENE
Cosmos 1603 4.2 18:31:34 10° SW 18:37:09 67° WNW 18:42:46 10° NNE
ATLAS 5 CENTAUR R/B 1.9 18:36:02 10° S 18:39:50 38° ESE 18:44:02 10° NE
Cosmos 2058 Rocket 3.9 18:35:56 10° SSE 18:39:53 31° E 18:43:50 10° NNE
Cosmos 2184 Rocket 4.0 18:35:58 10° N 18:42:16 79° E 18:48:29 10° SSE
STARLINK-52 3.7 18:39:28 10° SSW 18:42:23 32° SE 18:45:17 10° ENE
Cosmos 1726 Rocket 3.7 18:40:53 10° S 18:45:10 53° E 18:49:31 10° NNE
Aureole 1 Rocket 4.1 18:41:25 10° S 18:48:51 63° ESE 18:54:43 10° NNE
FREGAT/IRIS 2.3 18:47:37 10° SSE 18:50:20 89° W 18:53:04 10° NNW
Meteor 1-16 Rocket 4.2 18:45:01 10° S 18:50:26 87° E 18:56:04 10° NNE
SJ-6B 2.9 18:46:25 10° SSE 18:50:30 64° ENE 18:54:37 10° N
Cosmos 1943 Rocket 4.2 18:48:21 10° NW 18:53:01 28° WSW 18:57:43 10° SSW
Cosmos 1825 Rocket 3.6 18:48:48 10° N 18:53:12 81° W 18:57:32 10° S
Cosmos 921 Rocket 3.6 18:50:24 10° N 18:54:19 37° ENE 18:57:17 16° SE
H-2A R/B 2.1 18:49:16 10° SSE 18:54:28 82° WSW 18:59:34 10° NNW
Resurs 01 Rocket 2.6 18:54:19 15° ESE 18:57:11 29° ENE 19:00:58 10° N
Cosmos 1461 3.2 18:53:36 10° NNW 18:58:07 64° NE 19:01:46 16° SE
USA 234 4.2 18:54:10 10° ENE 18:59:10 23° SE 19:04:09 10° S
Cosmos 2228 3.0 18:55:41 10° S 18:59:59 90° NNW 19:04:21 10° N
Nadezhda 1 Rocket 4.0 18:53:41 10° S 19:00:02 71° E 19:06:21 10° NNE
ATLAS 2AS CENTAUR R/B 2.9 18:54:12 10° NW 19:01:52 88° SW 19:08:25 12° SE
SeaSat 1 3.7 18:57:10 10° NNE 19:01:53 46° NW 19:06:34 10° SW
Cosmos 1300 3.7 19:00:26 17° SE 19:02:27 26° E 19:05:40 10° NNE
CZ-2C R/B 3.1 18:58:26 10° S 19:03:18 75° WSW 19:08:04 10° NNW
Cosmos 2154 Rocket 4.0 18:58:43 10° N 19:05:06 76° E 19:11:25 10° SSE
Cosmos 2369 Rocket 4.0 19:01:38 10° NW 19:06:29 30° WSW 19:11:18 10° SSW
USA 186 2.5 19:03:26 10° S 19:06:41 53° W 19:09:48 10° NNW
Ariane Rocket 3.8 19:04:41 10° S 19:09:36 52° W 19:14:34 10° NNW
Cosmos 1140 Rocket 3.4 19:05:51 10° S 19:10:58 63° ESE 19:16:05 10° NNE
BREEZE M DEB (TANK) 3.8 19:00:23 10° SW 19:11:44 69° SSE 19:14:50 14° ENE
SL-4 R/B 2.5 19:10:11 10° W 19:13:28 45° NNW 19:16:48 10° NE
Cosmos 1606 Rocket 4.2 19:11:00 10° SSW 19:15:22 59° WNW 19:19:49 10° N
Cosmos 1953 Rocket 3.9 19:11:06 10° NNW 19:15:35 71° W 19:20:03 10° S
Cosmos 1703 3.9 19:12:33 10° NNW 19:16:28 57° W 19:20:21 10° S
Cosmos 1340 Rocket 2.7 19:12:38 10° S 19:16:41 77° E 19:20:43 10° NNE
STARLINK-1234 2.9 19:14:05 10° NW 19:17:02 62° NNE 19:18:03 35° E
Cosmos 2058 4.3 19:14:05 10° NNE 19:17:14 21° ENE 19:17:51 20° E
STARLINK-1209 2.8 19:14:41 10° NW 19:17:39 66° NNE 19:18:37 37° E
Cosmos 1190 Rocket 4.0 19:15:50 10° SSW 19:21:08 88° ESE 19:26:28 10° NNE
Cosmos 614 Rocket 4.4 19:15:57 10° SSW 19:21:09 67° WNW 19:26:21 10° NNE
STARLINK-1233 3.3 19:18:04 10° NW 19:21:09 53° NNE 19:22:13 34° E
STARLINK-1212 3.3 19:18:30 10° NW 19:21:35 53° NNE 19:22:37 34° E
Spot 2 Rocket 4.5 19:19:29 22° ESE 19:21:36 30° ENE 19:26:00 10° N
STARLINK-1105 3.3 19:18:57 10° NW 19:22:03 54° NNE 19:23:04 35° E
STARLINK-1206 3.2 19:19:26 10° NW 19:22:31 54° NNE 19:23:29 35° E
STARLINK-1247 3.2 19:19:53 10° NW 19:22:58 54° NNE 19:23:55 36° E
Cosmos 1908 4.0 19:19:33 10° SSW 19:23:19 54° W 19:27:10 10° N
STARLINK-1227 3.2 19:20:18 10° NW 19:23:24 55° NNE 19:24:22 36° E
STARLINK-1218 3.2 19:20:47 10° NW 19:23:52 55° NNE 19:24:47 37° E
STARLINK-1226 3.2 19:21:12 10° NW 19:24:18 55° NNE 19:25:13 37° E
STARLINK-1254 3.2 19:21:38 10° NW 19:24:45 56° NNE 19:25:40 38° E
STARLINK-1215 3.2 19:22:08 10° NW 19:25:13 56° NNE 19:26:06 39° E
ERBS 3.9 19:22:46 10° NNW 19:25:40 26° NNE 19:26:51 21° ENE
STARLINK-1231 3.1 19:22:35 10° NW 19:25:40 57° NNE 19:26:31 39° E
STARLINK-1232 3.1 19:23:29 10° NW 19:26:35 58° NNE 19:27:24 41° E
STARLINK-1217 3.1 19:23:55 10° NW 19:27:01 58° NNE 19:27:49 41° E
STARLINK-1208 3.1 19:24:21 10° NW 19:27:28 59° NNE 19:28:17 41° E
STARLINK-1229 3.1 19:24:50 10° NW 19:27:56 59° NNE 19:28:41 42° E
STARLINK-1271 3.1 19:25:16 10° NW 19:28:22 60° NNE 19:29:07 43° E
STARLINK-1270 3.1 19:25:44 10° NW 19:28:50 60° NNE 19:29:33 44° E
STARLINK-1154 3.1 19:26:10 10° NW 19:29:17 60° NNE 19:29:59 45° E
STARLINK-1197 3.0 19:27:06 10° NW 19:30:12 61° NNE 19:30:52 46° E
STARLINK-1189 3.0 19:27:32 10° NW 19:30:38 62° NNE 19:31:17 47° E
STARLINK-1198 3.0 19:28:00 10° NW 19:31:06 62° NNE 19:31:44 47° E
STARLINK-1188 3.0 19:28:24 10° NW 19:31:31 63° NNE 19:32:08 48° E
STARLINK-1230 4.4 19:28:04 10° NW 19:32:03 42° NNE 19:33:55 26° ENE
STARLINK-1235 2.8 19:29:05 10° WNW 19:32:15 80° NNE 19:32:51 54° ESE
SL-24 R/B 3.9 19:28:38 10° N 19:32:39 74° WNW 19:36:20 10° SSW
STARLINK-1187 2.9 19:29:30 10° NW 19:32:40 72° NNE 19:33:16 52° E
STARLINK-67 2.9 19:30:47 10° WNW 19:33:16 48° SW 19:33:19 47° SSW
STARLINK-1199 3.0 19:30:22 10° NW 19:33:30 66° NNE 19:34:04 51° E
Cosmos 1076 Rocket 4.3 19:29:48 10° N 19:33:39 32° ENE 19:34:16 30° E
DMSP B5D2-2 4.0 19:28:33 10° NNE 19:33:48 77° ESE 19:39:02 10° S
STARLINK-1191 3.0 19:30:49 10° NW 19:33:57 66° NNE 19:34:30 52° E
STARLINK-1210 3.0 19:31:16 10° NW 19:34:24 67° NNE 19:34:56 53° E
STARLINK-1221 2.9 19:31:44 10° NW 19:34:52 67° NNE 19:35:23 54° E
STARLINK-1219 2.9 19:32:10 10° NW 19:35:19 68° NNE 19:35:49 55° E
STARLINK-1222 2.9 19:32:37 10° NW 19:35:46 68° NNE 19:36:15 56° E
STARLINK-1211 2.9 19:33:06 10° NW 19:36:14 69° NNE 19:36:42 57° E
Abrixas rocket 1.7 19:33:36 10° WNW 19:36:34 90° NNE 19:36:49 73° ESE
STARLINK-1214 2.9 19:33:31 10° NW 19:36:40 69° NNE 19:37:06 57° E
STARLINK-1243 4.4 19:33:02 10° NW 19:37:02 44° NNE 19:38:42 29° ENE
STARLINK-1245 2.8 19:34:01 10° NW 19:37:08 70° NNE 19:37:32 59° E
STARLINK-1238 2.9 19:34:25 10° NW 19:37:34 71° NNE 19:37:59 59° E
STARLINK-29 3.1 19:34:44 10° WSW 19:37:56 70° NNW 19:39:26 28° NE
BREEZE-M DEB (TANK) 3.1 19:32:54 10° WNW 19:38:02 70° SSW 19:38:39 50° SSE
STARLINK-1205 2.8 19:35:22 10° NW 19:38:30 72° NNE 19:38:51 62° E
STARLINK-1204 2.8 19:35:49 10° NW 19:38:56 72° NNE 19:39:16 63° E
MetOp-A 4.3 19:34:34 12° S 19:39:33 73° WSW 19:44:56 10° NNW
STARLINK-1236 4.3 19:38:01 10° NW 19:42:02 46° NNE 19:43:28 32° ENE
STARLINK-60 4.4 19:39:56 10° W 19:43:01 37° NNW 19:45:10 17° NE
CZ-2C R/B 2.4 19:37:52 10° NNE 19:43:04 80° ESE 19:48:17 10° S
SPOT 5 4.4 19:43:20 17° ENE 19:43:20 17° ENE 19:46:06 10° NNE
Cosmos 1697 Rocket 4.1 19:42:08 10° N 19:46:34 23° NE 19:48:22 20° ENE
Terra 3.7 19:46:44 16° ENE 19:46:59 16° ENE 19:49:47 10° NNE
Cosmos 407 Rocket 4.5 19:42:56 10° SW 19:47:53 47° WNW 19:52:51 10° N
ERS-1 Rocket 4.1 19:47:11 25° ENE 19:47:54 26° ENE 19:52:02 10° N
Cosmos 676 Rocket 4.0 19:44:50 10° SSW 19:50:08 87° WNW 19:55:25 10° NNE
Iridium 2 3.6 19:50:40 58° ESE 19:50:51 58° E 19:54:37 10° NNE
STARLINK-1269 4.1 19:47:57 10° NW 19:52:01 52° NNE 19:53:02 41° ENE
STARLINK-1200 4.0 19:52:55 10° NW 19:57:01 55° NNE 19:57:48 46° ENE
Cosmos 192 4.4 19:52:10 10° NNW 19:57:06 61° ENE 19:58:14 47° ESE
SPOT 3 Rocket 4.5 19:53:38 11° S 19:58:28 46° W 20:03:28 10° NNW
STARLINK-1192 3.9 19:57:55 10° NW 20:02:01 58° NNE 20:02:36 52° ENE
COSMOS 2455 3.2 20:00:47 10° NW 20:06:42 60° WSW 20:09:32 31° S
STARLINK-1201 3.6 20:03:36 10° WNW 20:06:17 54° W 20:06:17 54° W
STARLINK-1244 3.7 20:02:54 10° NW 20:07:01 62° NNE 20:07:23 58° NE
Cosmos 1656 4.0 20:04:31 10° NNW 20:10:03 50° ENE 20:11:09 44° E
Cosmos 1455 4.3 20:13:24 17° NE 20:13:24 17° NE 20:14:34 10° NNE
STARLINK-1138 3.7 20:07:52 10° NW 20:12:00 66° NNE 20:12:10 65° NE
MOS 1 Rocket 4.3 20:07:02 10° N 20:12:19 55° WNW 20:17:36 10° SSW
IGS 5A 3.7 20:13:40 54° NE 20:13:40 54° NE 20:17:25 10° N
FALCON 9 DEB 4.1 20:10:25 10° W 20:13:49 46° NNW 20:14:16 43° N
Cosmos 1980 Rocket 3.7 20:11:59 10° N 20:16:15 22° NE 20:17:17 21° ENE
STARLINK-1143 3.7 20:12:50 10° NW 20:16:57 70° NNE 20:16:57 70° NNE
Cosmos 1892 3.0 20:13:50 10° N 20:17:06 58° NNE 20:17:06 58° NNE
STARLINK-52 4.3 20:15:25 10° W 20:18:09 39° NW 20:18:09 39° NW
Cosmos 1741 Rocket 3.9 20:18:19 60° SE 20:18:51 64° ESE 20:24:09 10° NNE
ATLAS CENTAUR R/B 3.1 20:16:49 10° N 20:19:27 20° NNE 20:19:27 20° NNE
BREEZE M DEB (TANK) 3.2 20:18:00 10° WSW 20:21:34 86° SSE 20:32:50 10° ENE
SPOT 1/Viking Rocket 3.5 20:21:22 60° ESE 20:21:56 65° ENE 20:27:07 10° N
STARLINK-1241 3.7 20:17:51 10° WNW 20:21:46 72° N 20:21:46 72° N
CARTOSAT-1 4.5 20:22:53 37° NE 20:22:53 37° NE 20:26:11 10° N
ATLAS 5 CENTAUR R/B 3.5 20:20:43 10° W 20:24:31 31° NW 20:28:47 10° NNE
Cosmos 1825 4.0 20:21:34 10° N 20:23:21 22° NNE 20:23:21 22° NNE
CZ-4C R/B 3.8 20:19:50 10° NNW 20:26:12 37° NE 20:29:18 27° E
STARLINK-1239 3.8 20:22:48 10° WNW 20:26:31 69° NNW 20:26:31 69° NNW
Cosmos 2208 Rocket 4.5 20:23:08 10° N 20:28:08 45° ENE 20:28:08 45° ENE
Cosmos 1763 Rocket 3.3 20:25:29 10° NNW 20:30:42 81° ENE 20:30:58 77° ESE
STARLINK-1240 4.0 20:27:47 10° WNW 20:31:18 63° NW 20:31:18 63° NW
Resurs 01 Rocket 3.2 20:31:53 23° SW 20:33:36 30° W 20:37:32 10° NNW
Okean 3 Rocket 4.4 20:30:20 10° N 20:33:36 41° NNE 20:33:36 41° NNE
STARLINK-1216 4.2 20:32:46 10° WNW 20:36:06 56° WNW 20:36:06 56° WNW
Cosmos 2218 Rocket 4.3 20:31:01 10° NNW 20:37:09 64° W 20:39:41 36° SSW
Cosmos 540 Rocket 4.0 20:32:14 10° N 20:36:54 46° NE 20:36:54 46° NE
Meteor 2-12 Rocket 4.4 20:33:00 10° N 20:39:07 80° W 20:40:31 55° S
Cosmos 1174 4.4 20:37:22 10° NW 20:41:25 65° WSW 20:41:25 65° WSW
STARLINK-1237 4.4 20:37:43 10° WNW 20:40:51 50° WNW 20:40:51 50° WNW
Landsat 7 3.9 20:42:03 73° WSW 20:42:05 73° WSW 20:46:52 10° NNW
Iridium 4 Rocket 3.5 20:38:02 10° N 20:41:55 55° WNW 20:41:55 55° WNW
USA 234 3.1 20:36:15 10° NE 20:42:50 80° SE 20:49:23 10° SW
Cosmos 1814 Rocket 4.4 20:37:41 10° NNW 20:42:40 51° NE 20:42:40 51° NE
Cosmos 2082 Rocket 4.1 20:49:07 17° NE 20:49:07 17° NE 20:50:36 10° NE
Cosmos 2278 4.4 20:40:25 10° NNW 20:45:43 39° NE 20:45:43 39° NE
RESURS DK-1 3.5 20:48:57 10° NNW 20:51:45 41° NNW 20:51:45 41° NNW
SL-4 R/B 3.9 20:50:31 10° WNW 20:52:28 24° NNW 20:52:28 24° NNW
Cosmos 2058 4.3 20:50:30 10° NNW 20:54:04 34° W 20:54:04 34° W
Cosmos 1833 Rocket 3.6 20:56:29 35° NE 20:56:29 35° NE 20:59:50 10° NNE
Meteor 2-10 Rocket 3.6 20:58:38 73° N 20:58:38 73° N 21:03:34 10° N
USA 32 4.1 20:53:48 10° N 20:58:48 74° WNW 20:58:48 74° WNW
Cosmos 2151 4.1 20:55:52 10° NNW 20:58:42 41° NNW 20:58:42 41° NNW
COSMOS 2406 3.4 21:08:16 62° WSW 21:08:58 68° WNW 21:14:41 10° NNE
Cosmos 841 Rocket 3.8 21:03:40 10° NNW 21:08:12 66° NNW 21:08:12 66° NNW
Nadezhda 3 Rocket 3.9 21:15:55 82° WSW 21:16:03 83° W 21:22:22 10° N
SPOT 5 4.1 21:22:34 35° NW 21:22:34 35° NW 21:25:17 10° NNW
Terra 2.8 21:25:36 44° NNW 21:25:36 44° NNW 21:28:56 10° NNW
ERS-1 Rocket 4.0 21:27:10 41° WNW 21:27:10 41° WNW 21:31:16 10° NNW
Cosmos 2369 4.1 21:22:38 10° NNW 21:27:19 60° NW 21:27:19 60° NW
Cosmos 1697 Rocket 3.1 21:25:27 10° NNW 21:30:07 58° WNW 21:30:07 58° WNW
Cosmos 1934 Rocket 4.3 21:42:41 10° NNW 21:48:02 64° NW 21:48:02 64° NW
SL-16 R/B 3.6 21:46:05 10° N 21:50:12 31° NNE 21:50:12 31° NNE
Cosmos 2360 Rocket 4.2 21:49:05 10° N 21:52:54 18° NE 21:53:00 18° NE
Cosmos 2322 Rocket 3.6 21:53:51 10° N 21:57:48 30° NNE 21:57:48 30° NNE
ATLAS CENTAUR R/B 4.3 21:55:14 10° NW 21:55:38 12° NW 21:55:38 12° NW
Mayak 1.3 21:55:13 10° N 21:56:22 18° N 21:56:22 18° N
Cosmos 1980 Rocket 3.1 21:55:14 10° NNW 21:59:03 44° NW 21:59:03 44° NW
Cosmos 1605 Rocket 4.5 21:59:12 10° N 22:03:58 57° NNW 22:03:58 57° NNW
CZ-4C R/B 3.1 22:08:07 10° NW 22:14:29 67° WNW 22:14:29 67° WNW
USA 234 4.2 22:19:26 10° NE 22:25:34 45° NNW 22:31:43 10° W
Cosmos 2082 Rocket 3.5 22:30:55 37° NNW 22:30:55 37° NNW 22:35:00 10° NNE
Cosmos 1833 Rocket 4.4 22:38:06 26° WNW 22:38:37 26° NW 22:43:20 10° N
Cosmos 2344 4.4 22:37:44 10° NW 22:47:33 70° WSW 22:48:33 68° SSW
Cosmos 2219 Rocket 4.3 22:46:52 10° N 22:50:43 18° NE 22:50:59 18° NE
SL-16 R/B 4.5 23:17:35 19° ENE 23:18:46 20° NE 23:23:02 10° NNE
SL-16 R/B 4.2 23:30:05 10° NW 23:32:03 21° NW 23:32:03 21° NW
Cosmos 2360 Rocket 3.8 23:32:05 10° NNW 23:34:46 29° NNW 23:34:46 29° NNW
Cosmos 2322 Rocket 4.2 23:37:44 10° NW 23:39:36 21° NW 23:39:36 21° NW
CZ-2D R/B 4.4 23:41:01 10° NE 23:43:04 16° ENE 23:43:04 16° ENE
SJ 16-02 4.3 23:52:41 12° NE 23:52:41 12° NE 23:53:10 10° NE
